Location: Prague
(50.0830°N, 14.4670°E)
Time: 09:21:28
(UTC+02:00)

RS-15 - Pass Details

Date: 06 April 2023
Orbit: 1885 x 2159 km, 64.8° (Epoch: 29 May)

Event Time Altitude Azimuth Distance (km) Brightness Sun altitude
Rises 23:24:42 0° 317° (NW) 5,656 11.6 -29.3°
Reaches altitude 10° 23:28:12 10° 318° (NW) 4,628 10.9 -29.6°
Maximum altitude 23:40:21 85° 49° (NE) 2,061 8.0 -30.4°
Enters shadow 23:44:17 50° 134° (SE) 2,443 8.1 -30.7°
